Weather History for KBCB - June, 2013

Change the Weather History Date:

Wednesday, June 5, 2013

  Actual Average Record
Temperature  
Mean Temperature 64 °F 65 °F  
Max Temperature 72 °F 76 °F 88 °F (2002)
Min Temperature 56 °F 54 °F 38 °F (1988)
Degree Days  
Heating Degree Days 1 2  
Month to date heating degree days 2 14  
Since 1 June heating degree days 2 14  
Since 1 July heating degree days 5347 5422  
Cooling Degree Days 0 2  
Month to date cooling degree days 8 10  
Year to date cooling degree days 39 39  
Since 1 June cooling degree days 8 10  
Growing Degree Days 16 (Base 50)    
Moisture  
Dew Point 64 °F    
Average Humidity 90    
Maximum Humidity 100    
Minimum Humidity 79    
Precipitation  
Precipitation 0.00 in 0.15 in 1.59 in (1993)
Month to date precipitation 0.25 0.78  
Year to date precipitation 22.12 18.12  
Snow  
Snow 0.00 in - - ()
Month to date snowfall 0.0  
Since 1 June snowfall 0.0  
Since 1 July snowfall 27.9  
Snow Depth 0.00 in    
Sea Level Pressure  
Sea Level Pressure 30.16 in    
Wind  
Wind Speed 5 mph (SE)    
Max Wind Speed 14 mph    
Max Gust Speed 20 mph    
Visibility 8 miles    
Events      
T = Trace of Precipitation, MM = Missing Value Source: NWS Daily Summary

Daily Weather History Graph

Daily Weather History Graph

Search for Another Location

Airport or City:

Trip Planner

Search our weather history database for the weather conditions in past years. The results will help you decide how hot, cold, wet, or windy it might be!

Date:

Astronomy

Jun. 05, 2013 Rise Set
Actual Time 6:01 AM EDT 8:38 PM EDT
Civil Twilight 5:31 AM EDT 9:09 PM EDT
Nautical Twilight 4:53 AM EDT 9:47 PM EDT
Astronomical Twilight 4:10 AM EDT 10:30 PM EDT
Moon 4:01 AM EDT (6/5) 6:06 PM EDT (6/5)
Length of Visible Light 15h 38m
Length of Day
14h 37m
Waning Crescent, 8% of the Moon is Illuminated
Jun 5
Waning Crescent
Jun 8
New
Jun 16
First Quarter
Jun 23
Full
Jun 30
Last Quarter

Hourly Weather History & Observations

Time (EDT) Temp. Dew Point Humidity Pressure Visibility Wind Dir Wind Speed Gust Speed Precip Events Conditions
12:15 AM 64.4 °F 64.4 °F 100% 30.19 in 7.0 mi ESE 3.5 mph - N/A   Mostly Cloudy
12:35 AM 64.4 °F 64.4 °F 100% 30.19 in 7.0 mi Calm Calm - N/A   Mostly Cloudy
12:55 AM 64.4 °F 64.4 °F 100% 30.19 in 7.0 mi Calm Calm - N/A   Mostly Cloudy
1:15 AM 64.4 °F 64.4 °F 100% 30.19 in 7.0 mi Calm Calm - N/A   Overcast
1:35 AM 64.4 °F 64.4 °F 100% 30.19 in 5.0 mi Calm Calm - N/A   Mostly Cloudy
1:55 AM 62.6 °F 62.6 °F 100% 30.18 in 5.0 mi ESE 3.5 mph - N/A   Scattered Clouds
2:15 AM 62.6 °F 62.6 °F 100% 30.18 in 5.0 mi ESE 3.5 mph - N/A   Clear
2:35 AM 60.8 °F 60.8 °F 100% 30.18 in 4.0 mi Calm Calm - N/A   Clear
2:55 AM 60.8 °F 60.8 °F 100% 30.18 in 5.0 mi SE 4.6 mph - N/A   Clear
3:15 AM 60.8 °F 60.8 °F 100% 30.17 in 4.0 mi Calm Calm - N/A   Scattered Clouds
3:35 AM 60.8 °F 60.8 °F 100% 30.17 in 4.0 mi Calm Calm - N/A   Scattered Clouds
3:55 AM 60.8 °F 60.8 °F 100% 30.16 in 3.0 mi East 3.5 mph - N/A   Clear
4:15 AM 60.8 °F 60.8 °F 100% 30.17 in 4.0 mi Calm Calm - N/A   Scattered Clouds
4:35 AM 62.6 °F 62.6 °F 100% 30.18 in 4.0 mi Calm Calm - N/A   Overcast
4:55 AM 60.8 °F 60.8 °F 100% 30.18 in 2.5 mi Calm Calm - N/A   Scattered Clouds
5:15 AM 60.8 °F 60.8 °F 100% 30.19 in 3.0 mi Calm Calm - N/A   Scattered Clouds
5:35 AM 60.8 °F 60.8 °F 100% 30.19 in 3.0 mi ESE 5.8 mph - N/A   Mostly Cloudy
5:55 AM 60.8 °F 60.8 °F 100% 30.20 in 3.0 mi SE 3.5 mph - N/A   Mostly Cloudy
6:15 AM 60.8 °F 60.8 °F 100% 30.20 in 2.5 mi Calm Calm - N/A   Mostly Cloudy
6:35 AM 60.8 °F 60.8 °F 100% 30.20 in 2.5 mi Calm Calm - N/A   Overcast
6:55 AM 60.8 °F 60.8 °F 100% 30.21 in 2.0 mi Calm Calm - N/A   Overcast
7:15 AM 62.6 °F 62.6 °F 100% 30.21 in 2.5 mi East 3.5 mph - N/A   Overcast
7:35 AM 62.6 °F 62.6 °F 100% 30.21 in 3.0 mi East 3.5 mph - N/A   Overcast
7:55 AM 62.6 °F 62.6 °F 100% 30.21 in 4.0 mi ESE 4.6 mph - N/A   Overcast
8:15 AM 62.6 °F 62.6 °F 100% 30.20 in 5.0 mi East 3.5 mph - N/A   Overcast
8:35 AM 64.4 °F 62.6 °F 94% 30.21 in 7.0 mi East 4.6 mph - N/A   Overcast
8:55 AM 64.4 °F 62.6 °F 94% 30.21 in 7.0 mi Calm Calm - N/A   Overcast
9:15 AM 64.4 °F 62.6 °F 94% 30.21 in 10.0 mi ESE 5.8 mph - N/A   Overcast
9:35 AM 66.2 °F 62.6 °F 88% 30.21 in 10.0 mi Calm Calm - N/A   Mostly Cloudy
9:55 AM 68.0 °F 62.6 °F 83% 30.21 in 10.0 mi Calm Calm - N/A   Scattered Clouds
10:15 AM 69.8 °F 64.4 °F 83% 30.21 in 10.0 mi ESE 6.9 mph - N/A   Mostly Cloudy
10:35 AM 69.8 °F 64.4 °F 83% 30.20 in 10.0 mi ESE 5.8 mph - N/A   Mostly Cloudy
10:55 AM 71.6 °F 64.4 °F 78% 30.20 in 10.0 mi East 6.9 mph - N/A   Mostly Cloudy
11:15 AM 71.6 °F 64.4 °F 78% 30.19 in 10.0 mi SE 9.2 mph - N/A   Mostly Cloudy
11:35 AM 71.6 °F 66.2 °F 83% 30.19 in 10.0 mi East 8.1 mph - N/A   Overcast
11:55 AM 71.6 °F 64.4 °F 78% 30.18 in 10.0 mi ESE 11.5 mph - N/A   Overcast
12:15 PM 73.4 °F 66.2 °F 78% 30.17 in 10.0 mi ESE 9.2 mph - N/A   Mostly Cloudy
12:35 PM 71.6 °F 66.2 °F 83% 30.17 in 10.0 mi ESE 11.5 mph - N/A   Overcast
12:55 PM 71.6 °F 66.2 °F 83% 30.17 in 10.0 mi ESE 9.2 mph - N/A   Overcast
1:15 PM 71.6 °F 66.2 °F 83% 30.16 in 10.0 mi SE 8.1 mph - N/A   Overcast
1:35 PM 73.4 °F 66.2 °F 78% 30.16 in 10.0 mi SE 8.1 mph - N/A   Overcast
1:55 PM 73.4 °F 66.2 °F 78% 30.16 in 10.0 mi ESE 8.1 mph - N/A   Overcast
2:15 PM 73.4 °F 66.2 °F 78% 30.15 in 10.0 mi SSE 8.1 mph - N/A   Overcast
2:35 PM 71.6 °F 64.4 °F 78% 30.15 in 10.0 mi SSE 8.1 mph - N/A   Overcast
2:55 PM 71.6 °F 64.4 °F 78% 30.15 in 10.0 mi SSE 13.8 mph - N/A   Overcast
3:15 PM 73.4 °F 64.4 °F 73% 30.15 in 10.0 mi SE 12.7 mph 19.6 mph N/A   Mostly Cloudy
3:35 PM 73.4 °F 66.2 °F 78% 30.15 in 10.0 mi South 9.2 mph - N/A   Overcast
3:55 PM 71.6 °F 64.4 °F 78% 30.15 in 10.0 mi South 9.2 mph - N/A   Mostly Cloudy
4:15 PM 73.4 °F 64.4 °F 73% 30.14 in 10.0 mi SSE 10.4 mph - N/A   Overcast
4:35 PM 73.4 °F 64.4 °F 73% 30.13 in 10.0 mi SSE 9.2 mph - N/A   Overcast
4:55 PM 71.6 °F 64.4 °F 78% 30.13 in 10.0 mi SE 5.8 mph - N/A   Overcast
5:15 PM 73.4 °F 64.4 °F 73% 30.12 in 10.0 mi South 9.2 mph - N/A   Mostly Cloudy
5:35 PM 71.6 °F 64.4 °F 78% 30.12 in 10.0 mi SSE 11.5 mph - N/A   Overcast
5:55 PM 69.8 °F 64.4 °F 83% 30.12 in 10.0 mi SSE 8.1 mph - N/A   Overcast
6:15 PM 69.8 °F 64.4 °F 83% 30.12 in 10.0 mi SSE 6.9 mph - N/A   Overcast
6:35 PM 69.8 °F 64.4 °F 83% 30.12 in 10.0 mi SSE 8.1 mph - N/A   Overcast
6:55 PM 68.0 °F 64.4 °F 88% 30.12 in 10.0 mi South 5.8 mph - N/A   Overcast
7:15 PM 68.0 °F 64.4 °F 88% 30.12 in 10.0 mi SE 6.9 mph - N/A   Overcast
7:35 PM 68.0 °F 64.4 °F 88% 30.12 in 10.0 mi SE 8.1 mph - N/A   Overcast
7:55 PM 68.0 °F 64.4 °F 88% 30.12 in 10.0 mi ESE 6.9 mph - N/A   Overcast
8:15 PM 66.2 °F 64.4 °F 94% 30.12 in 10.0 mi ESE 4.6 mph - N/A   Mostly Cloudy
8:35 PM 66.2 °F 64.4 °F 94% 30.11 in 10.0 mi ESE 6.9 mph - N/A   Overcast
8:55 PM 66.2 °F 64.4 °F 94% 30.12 in 10.0 mi East 6.9 mph - N/A   Overcast
9:15 PM 66.2 °F 64.4 °F 94% 30.12 in 10.0 mi ESE 5.8 mph - N/A   Mostly Cloudy
9:35 PM 66.2 °F 64.4 °F 94% 30.13 in 10.0 mi ESE 4.6 mph - N/A   Mostly Cloudy
9:55 PM 66.2 °F 64.4 °F 94% 30.13 in 10.0 mi East 3.5 mph - N/A   Overcast
10:15 PM 66.2 °F 64.4 °F 94% 30.13 in 10.0 mi SE 3.5 mph - N/A   Overcast
10:35 PM 66.2 °F 64.4 °F 94% 30.14 in 10.0 mi ESE 3.5 mph - N/A   Overcast
10:55 PM 66.2 °F 64.4 °F 94% 30.13 in 10.0 mi ESE 3.5 mph - N/A   Overcast
11:15 PM 66.2 °F 64.4 °F 94% 30.12 in 10.0 mi East 3.5 mph - N/A   Overcast
11:35 PM 66.2 °F 64.4 °F 94% 30.12 in 10.0 mi East 4.6 mph - N/A   Overcast
11:55 PM 64.4 °F 64.4 °F 100% 30.11 in 10.0 mi ESE 5.8 mph - N/A   Mostly Cloudy